Weather History for KJEF - November, 2013

Change the Weather History Date:

Saturday, November 30, 2013

  Actual Average Record
Temperature  
Mean Temperature 44 °F -  
Max Temperature 59 °F 49 °F 72 °F (1970)
Min Temperature 28 °F 27 °F 1 °F (1929)
Degree Days  
Heating Degree Days 22    
Moisture  
Dew Point 31 °F    
Average Humidity 69    
Maximum Humidity 92    
Minimum Humidity 42    
Precipitation  
Precipitation 0.00 in - - ()
Sea Level Pressure  
Sea Level Pressure 30.17 in    
Wind  
Wind Speed 5 mph (SSE)    
Max Wind Speed 9 mph    
Max Gust Speed -    
Visibility 10 miles    
Events      
Averages and records for this station are not official NWS values.
T = Trace of Precipitation, MM = Missing Value Source: NWS Daily Summary

Daily Weather History Graph

Daily Weather History Graph

Search for Another Location

Airport or City:

Trip Planner

Search our weather history database for the weather conditions in past years. The results will help you decide how hot, cold, wet, or windy it might be!

Date:

Astronomy

Nov. 30, 2013 Rise Set
Actual Time 7:06 AM CST 4:47 PM CST
Civil Twilight 6:37 AM CST 5:17 PM CST
Nautical Twilight 6:04 AM CST 5:50 PM CST
Astronomical Twilight 5:32 AM CST 6:22 PM CST
Moon 4:19 AM CST (11/30) 3:11 PM CST (11/30)
Length of Visible Light 10h 39m
Length of Day
9h 41m
Waning Crescent, 7% of the Moon is Illuminated
Nov 30
Waning Crescent
Dec 2
New
Dec 9
First Quarter
Dec 17
Full
Dec 25
Last Quarter

Hourly Weather History & Observations

Time (CST) Temp. Windchill Dew Point Humidity Pressure Visibility Wind Dir Wind Speed Gust Speed Precip Events Conditions
12:53 AM 32.0 °F 25.6 °F 25.0 °F 75% 30.31 in 10.0 mi ESE 6.9 mph - N/A   Clear
1:53 AM 34.0 °F 31.0 °F 26.1 °F 73% 30.30 in 10.0 mi East 3.5 mph - N/A   Clear
2:53 AM 33.1 °F 26.9 °F 26.1 °F 75% 30.29 in 10.0 mi ESE 6.9 mph - N/A   Clear
3:53 AM 32.0 °F 27.5 °F 27.0 °F 82% 30.27 in 10.0 mi ESE 4.6 mph - N/A   Clear
4:53 AM 30.0 °F 25.2 °F 26.1 °F 85% 30.26 in 10.0 mi SE 4.6 mph - N/A   Clear
5:53 AM 28.0 °F 21.7 °F 25.0 °F 88% 30.25 in 10.0 mi SE 5.8 mph - N/A   Clear
6:53 AM 30.0 °F 23.2 °F 25.0 °F 82% 30.25 in 10.0 mi ESE 6.9 mph - N/A   Clear
7:53 AM 32.0 °F 24.8 °F 27.0 °F 82% 30.24 in 10.0 mi East 8.1 mph - N/A   Clear
8:53 AM 37.0 °F 31.6 °F 28.9 °F 73% 30.24 in 10.0 mi ESE 6.9 mph - N/A   Clear
9:53 AM 45.0 °F 42.6 °F 30.0 °F 56% 30.22 in 10.0 mi South 4.6 mph - N/A   Clear
10:53 AM 50.0 °F - 32.0 °F 50% 30.20 in 10.0 mi SW 5.8 mph - N/A   Clear
11:53 AM 54.0 °F - 34.0 °F 47% 30.14 in 10.0 mi SW 9.2 mph - N/A   Clear
12:53 PM 55.9 °F - 35.1 °F 45% 30.11 in 10.0 mi South 5.8 mph - N/A   Clear
1:53 PM 57.0 °F - 35.1 °F 44% 30.08 in 10.0 mi Variable 5.8 mph - N/A   Clear
2:53 PM 59.0 °F - 36.0 °F 42% 30.07 in 10.0 mi South 3.5 mph - N/A   Clear
3:53 PM 59.0 °F - 37.0 °F 44% 30.06 in 10.0 mi WSW 6.9 mph - N/A   Clear
4:53 PM 55.9 °F - 37.0 °F 49% 30.06 in 10.0 mi West 5.8 mph - N/A   Clear
5:53 PM 50.0 °F - 36.0 °F 59% 30.09 in 10.0 mi Calm Calm - N/A   Clear
6:53 PM 43.0 °F 41.3 °F 35.1 °F 74% 30.10 in 10.0 mi WNW 3.5 mph - N/A   Clear
7:53 PM 39.0 °F - 34.0 °F 82% 30.10 in 10.0 mi Calm Calm - N/A   Clear
8:53 PM 35.1 °F - 32.0 °F 89% 30.11 in 10.0 mi Calm Calm - N/A   Clear
9:53 PM 36.0 °F - 33.1 °F 89% 30.11 in 10.0 mi Calm Calm - N/A   Clear
10:53 PM 35.1 °F - 32.0 °F 89% 30.12 in 10.0 mi Calm Calm - N/A   Clear
11:53 PM 32.0 °F - 30.0 °F 92% 30.12 in 9.0 mi Calm Calm - N/A   Clear